Weather History for West Palm Beach, FL

Change the Weather History Date:

Friday, September 20, 2013

  Actual Average Record
Temperature  
Mean Temperature 80 °F 82 °F  
Max Temperature 87 °F 88 °F 94 °F (1927)
Min Temperature 73 °F 75 °F 65 °F (1911)
Degree Days  
Heating Degree Days 0 0  
Month to date heating degree days 0 0  
Since 1 July heating degree days 0 0  
Cooling Degree Days 15 17  
Month to date cooling degree days 337 340  
Year to date cooling degree days 3208 3046  
Growing Degree Days 30 (Base 50)    
Moisture  
Dew Point 68 °F    
Average Humidity 66    
Maximum Humidity 79    
Minimum Humidity 53    
Precipitation  
Precipitation T in 0.28 in 3.12 in (1981)
Month to date precipitation 6.93 5.71  
Year to date precipitation 54.55 46.43  
Snow  
Snow 0.00 in - - ()
Month to date snowfall 0.0  
Since 1 July snowfall 0.0  
Since 1 September snowfall 0.0  
Snow Depth 0.00 in    
Sea Level Pressure  
Sea Level Pressure 29.95 in    
Wind  
Wind Speed 9 mph (NE)    
Max Wind Speed 18 mph    
Max Gust Speed 22 mph    
Visibility 10 miles    
Events      
T = Trace of Precipitation, MM = Missing Value Source: NWS Daily Summary

Daily Weather History Graph

Daily Weather History Graph

Search for Another Location

Airport:

Trip Planner

Search our weather history database for the weather conditions in past years. The results will help you decide how hot, cold, wet, or windy it might be!

Date:

Astronomy

Sep. 20, 2013 Rise Set
Actual Time 7:08 AM EDT 7:18 PM EDT
Civil Twilight 6:45 AM EDT 7:41 PM EDT
Nautical Twilight 6:18 AM EDT 8:08 PM EDT
Astronomical Twilight 5:50 AM EDT 8:36 PM EDT
Moon 8:05 PM EDT 8:10 AM EDT
Length of Visible Light 12h 56m
Length of Day
12h 10m
Full, 98% of the Moon is Illuminated
Sep 20
Full
Sep 26
Last Quarter
Oct 4
New
Oct 11
First Quarter
Oct 18
Full

Hourly Weather History & Observations

Time (EDT) Temp. Heat Index Dew Point Humidity Pressure Visibility Wind Dir Wind Speed Gust Speed Precip Events Conditions
12:53 AM 80.1 °F 82.6 °F 67.8 °F 66% 29.99 in 10.0 mi ENE 6.9 mph - N/A   Scattered Clouds
1:53 AM 79.3 °F - 68.7 °F 70% 29.98 in 10.0 mi ENE 8.1 mph - N/A   Scattered Clouds
2:53 AM 79.3 °F - 68.5 °F 69% 29.97 in 10.0 mi ENE 8.1 mph - N/A   Scattered Clouds
3:53 AM 79.5 °F - 67.1 °F 66% 29.96 in 10.0 mi NE 4.6 mph - N/A   Scattered Clouds
4:53 AM 78.3 °F - 66.9 °F 68% 29.97 in 10.0 mi ENE 3.5 mph - N/A   Scattered Clouds
5:53 AM 77.5 °F - 67.8 °F 72% 29.97 in 10.0 mi ENE 4.6 mph - N/A   Scattered Clouds
6:53 AM 77.7 °F - 66.7 °F 69% 29.96 in 10.0 mi NE 3.5 mph - N/A   Partly Cloudy
7:53 AM 75.9 °F - 68.0 °F 76% 29.97 in 10.0 mi NW 3.5 mph - N/A   Scattered Clouds
8:53 AM 82.2 °F 84.7 °F 67.1 °F 60% 29.99 in 10.0 mi NNE 8.1 mph - N/A   Scattered Clouds
9:53 AM 84.0 °F 88.4 °F 70.0 °F 63% 29.99 in 10.0 mi NNE 12.7 mph - N/A   Scattered Clouds
10:53 AM 85.5 °F 89.8 °F 69.4 °F 59% 30.00 in 10.0 mi NE 13.8 mph 21.9 mph N/A   Scattered Clouds
11:53 AM 85.8 °F 89.1 °F 67.8 °F 55% 30.00 in 10.0 mi NNE 15.0 mph - N/A   Scattered Clouds
12:53 PM 85.8 °F 87.9 °F 66.0 °F 51% 29.99 in 10.0 mi ENE 12.7 mph 19.6 mph N/A   Scattered Clouds
1:53 PM 85.5 °F 88.5 °F 67.5 °F 55% 29.96 in 10.0 mi NE 12.7 mph - N/A   Partly Cloudy
2:53 PM 84.7 °F 88.2 °F 68.4 °F 58% 29.94 in 10.0 mi ENE 12.7 mph - N/A   Scattered Clouds
3:53 PM 86.0 °F 88.8 °F 67.1 °F 53% 29.92 in 10.0 mi NE 9.2 mph - N/A   Scattered Clouds
4:53 PM 86.0 °F 89.1 °F 67.5 °F 54% 29.91 in 10.0 mi NNE 10.4 mph - N/A   Scattered Clouds
5:53 PM 84.0 °F 87.8 °F 69.3 °F 61% 29.91 in 10.0 mi NNE 13.8 mph - N/A   Scattered Clouds
6:53 PM 80.1 °F 83.2 °F 70.0 °F 71% 29.91 in 10.0 mi NNE 10.4 mph - N/A   Mostly Cloudy
7:53 PM 81.0 °F 84.2 °F 69.4 °F 68% 29.91 in 10.0 mi NNE 4.6 mph - N/A   Mostly Cloudy
8:53 PM 82.0 °F 85.1 °F 68.4 °F 63% 29.91 in 10.0 mi ENE 11.5 mph - 0.00 in   Mostly Cloudy
9:53 PM 82.0 °F 84.9 °F 67.8 °F 62% 29.93 in 10.0 mi ENE 6.9 mph - N/A   Scattered Clouds
10:53 PM 81.0 °F 83.4 °F 67.1 °F 63% 29.92 in 10.0 mi ENE 6.9 mph - N/A   Partly Cloudy
11:53 PM 80.1 °F 82.7 °F 68.4 °F 67% 29.92 in 10.0 mi ENE 5.8 mph - N/A   Scattered Clouds